KAL931 RKSI-LIRF

Flight info

Callsign KAL931
Flight time N/A
Altitude 34100
Route BINIL Y697 AGAVO A591 IKEKA W4 HCH W200 DOVIV DCT LADIX W34 VYK B215 LEBOM W104 VEXEB W47 IDSOT W48 DKO W66 LAGEB/K0900S1100 W66 NUKTI B215 FKG A368 SARIN/K0906F360 N161 MADEV/K0898F380 N161 TITIL N55 BALUN/N0491F380 N55 BAKUV N701 LUSAL N319 ADEKI/N0488F400 N644 TETRO M10 SARPI UM10 HAKAN DCT BKZ UM603 GOLDO DCT PINDO DCT PAPIZ/N0485F410 DCT TOPNO/N0484F400 DCT TEA DCT SIPRO DCT LAT
Aircraft A359/H-SDE2E3GHIJ3J4J5LM1ORWXY/LB1D1

Departure

Time 2026-04-29 06:04
Airport Incheon International Airport (RKSI)

Arrival

Time N/A
Airport Rome–Fiumicino Leonardo da Vinci International Airport (LIRF)
Time Latitude Longitude Altitude Speed Heading
2026-04-29 04:38 37.46323 126.43202 39 ft 0 kts 69°
2026-04-29 05:47 37.46317 126.43184 38 ft 4 kts 66°
2026-04-29 05:48 37.46306 126.43153 37 ft 4 kts 63°
2026-04-29 05:48 37.46295 126.43122 36 ft 4 kts 76°
2026-04-29 05:48 37.46294 126.43094 36 ft 4 kts 108°
2026-04-29 05:48 37.46308 126.43070 37 ft 4 kts 162°
2026-04-29 05:49 37.46328 126.43063 38 ft 1 kts 156°
2026-04-29 05:49 37.46331 126.43061 36 ft 0 kts 156°
2026-04-29 05:54 37.46330 126.43061 39 ft 1 kts 156°
2026-04-29 05:54 37.46301 126.43077 39 ft 8 kts 156°
2026-04-29 05:55 37.46236 126.43114 39 ft 11 kts 156°
2026-04-29 05:55 37.46166 126.43159 39 ft 10 kts 148°
2026-04-29 05:55 37.46110 126.43210 39 ft 10 kts 144°
2026-04-29 05:55 37.46062 126.43250 39 ft 0 kts 146°
2026-04-29 05:57 37.46061 126.43250 39 ft 1 kts 146°
2026-04-29 05:57 37.46044 126.43266 39 ft 6 kts 144°
2026-04-29 05:57 37.45987 126.43286 39 ft 10 kts 194°
2026-04-29 05:58 37.45937 126.43227 39 ft 10 kts 222°
2026-04-29 05:58 37.45878 126.43228 39 ft 10 kts 155°
2026-04-29 05:58 37.45815 126.43282 39 ft 12 kts 144°
2026-04-29 05:58 37.45737 126.43351 39 ft 16 kts 144°
2026-04-29 05:59 37.45664 126.43416 39 ft 17 kts 144°
2026-04-29 05:59 37.45609 126.43464 39 ft 17 kts 144°
2026-04-29 05:59 37.45502 126.43560 38 ft 21 kts 144°
2026-04-29 05:59 37.45439 126.43616 39 ft 21 kts 145°
2026-04-29 06:00 37.45347 126.43699 39 ft 21 kts 144°
2026-04-29 06:00 37.45228 126.43804 39 ft 21 kts 145°
2026-04-29 06:00 37.45111 126.43909 39 ft 21 kts 144°
2026-04-29 06:00 37.44994 126.44013 39 ft 21 kts 145°
2026-04-29 06:01 37.44877 126.44117 39 ft 21 kts 145°
2026-04-29 06:01 37.44760 126.44220 39 ft 20 kts 144°
2026-04-29 06:01 37.44647 126.44322 39 ft 17 kts 145°
2026-04-29 06:01 37.44557 126.44401 39 ft 13 kts 144°
2026-04-29 06:02 37.44484 126.44396 39 ft 11 kts 224°
2026-04-29 06:02 37.44436 126.44319 39 ft 11 kts 234°
2026-04-29 06:02 37.44394 126.44244 39 ft 11 kts 234°
2026-04-29 06:02 37.44384 126.44161 39 ft 10 kts 287°
2026-04-29 06:03 37.44428 126.44100 39 ft 10 kts 323°
2026-04-29 06:03 37.44575 126.43966 39 ft 52 kts 324°
2026-04-29 06:03 37.45017 126.43571 39 ft 102 kts 324°
2026-04-29 06:03 37.45722 126.42942 38 ft 145 kts 325°
2026-04-29 06:04 37.46613 126.42134 303 ft 156 kts 320°
2026-04-29 06:04 37.47483 126.41321 719 ft 161 kts 320°
2026-04-29 06:04 37.48282 126.40297 1168 ft 166 kts 308°
2026-04-29 06:04 37.49023 126.39096 1400 ft 182 kts 308°
2026-04-29 06:05 37.49832 126.37768 1564 ft 201 kts 306°
2026-04-29 06:05 37.50412 126.36089 1721 ft 222 kts 279°
2026-04-29 06:05 37.50524 126.34065 1974 ft 240 kts 272°
2026-04-29 06:05 37.50549 126.31911 2422 ft 249 kts 273°
2026-04-29 06:06 37.50580 126.29709 2948 ft 254 kts 273°
2026-04-29 06:06 37.50622 126.27459 3501 ft 258 kts 274°
2026-04-29 06:06 37.50669 126.25194 4050 ft 261 kts 274°
2026-04-29 06:06 37.50719 126.22903 4606 ft 263 kts 275°
2026-04-29 06:07 37.50771 126.20591 5156 ft 265 kts 275°
2026-04-29 06:07 37.50596 126.18263 5692 ft 273 kts 257°
2026-04-29 06:07 37.49758 126.16092 6259 ft 278 kts 240°
2026-04-29 06:07 37.48685 126.14053 6828 ft 281 kts 238°
2026-04-29 06:08 37.47591 126.12011 7412 ft 282 kts 238°
2026-04-29 06:08 37.46869 126.10653 7809 ft 283 kts 238°
2026-04-29 06:08 37.45775 126.08586 8411 ft 284 kts 238°
2026-04-29 06:08 37.44311 126.05808 9250 ft 286 kts 237°
2026-04-29 06:09 37.43581 126.04422 9651 ft 287 kts 237°
2026-04-29 06:09 37.42477 126.02322 10266 ft 289 kts 237°
2026-04-29 06:09 37.41374 126.00139 10525 ft 303 kts 242°
2026-04-29 06:09 37.40724 125.97612 10724 ft 316 kts 265°
2026-04-29 06:10 37.40628 125.94748 10981 ft 330 kts 270°
2026-04-29 06:10 37.40619 125.91801 11218 ft 344 kts 270°
2026-04-29 06:10 37.40604 125.88737 11468 ft 357 kts 270°
2026-04-29 06:10 37.40579 125.85559 11717 ft 370 kts 270°
2026-04-29 06:11 37.40546 125.82269 11945 ft 381 kts 270°
2026-04-29 06:11 37.40508 125.78905 12348 ft 387 kts 270°
2026-04-29 06:11 37.40467 125.75507 12828 ft 391 kts 270°
2026-04-29 06:11 37.40425 125.72067 13303 ft 395 kts 270°
2026-04-29 06:12 37.40381 125.68606 13822 ft 398 kts 270°
2026-04-29 06:12 37.40335 125.65115 14311 ft 400 kts 269°
2026-04-29 06:12 37.40291 125.61628 14901 ft 399 kts 269°
2026-04-29 06:12 37.40244 125.58145 15537 ft 397 kts 269°
2026-04-29 06:13 37.40194 125.54673 16060 ft 398 kts 269°
2026-04-29 06:13 37.40144 125.51194 16612 ft 398 kts 269°
2026-04-29 06:13 37.40092 125.47708 17106 ft 400 kts 269°
2026-04-29 06:13 37.40040 125.44268 17539 ft 402 kts 269°
2026-04-29 06:14 37.39984 125.40676 18092 ft 403 kts 269°
2026-04-29 06:14 37.39929 125.37158 18597 ft 403 kts 269°
2026-04-29 06:14 37.39873 125.33629 19048 ft 403 kts 269°
2026-04-29 06:14 37.39816 125.30107 19510 ft 403 kts 269°
2026-04-29 06:15 37.39758 125.26592 19977 ft 403 kts 269°
2026-04-29 06:15 37.39699 125.23064 20410 ft 404 kts 269°
2026-04-29 06:15 37.39635 125.19510 20696 ft 409 kts 269°
2026-04-29 06:15 37.39573 125.15943 21178 ft 408 kts 269°
2026-04-29 06:16 37.39513 125.12388 21709 ft 406 kts 269°
2026-04-29 06:16 37.39451 125.08838 22203 ft 405 kts 269°
2026-04-29 06:16 37.39389 125.05302 22691 ft 405 kts 268°
2026-04-29 06:16 37.39325 125.01806 23140 ft 404 kts 268°
2026-04-29 06:17 37.39260 124.98234 23701 ft 402 kts 268°
2026-04-29 06:17 37.39194 124.94760 24000 ft 405 kts 268°
2026-04-29 06:17 37.39126 124.91214 24298 ft 406 kts 268°
2026-04-29 06:17 37.39057 124.87709 24634 ft 407 kts 268°
2026-04-29 06:18 37.38985 124.84095 25000 ft 408 kts 267°
2026-04-29 06:18 37.38910 124.80530 25353 ft 408 kts 267°
2026-04-29 06:18 37.38836 124.76959 25712 ft 409 kts 267°
2026-04-29 06:18 37.38761 124.73381 26077 ft 410 kts 266°
2026-04-29 06:19 37.38686 124.69794 26374 ft 412 kts 266°
2026-04-29 06:19 37.38609 124.66193 26702 ft 413 kts 266°
2026-04-29 06:19 37.38531 124.62585 27055 ft 413 kts 266°
2026-04-29 06:19 37.38452 124.58968 27395 ft 414 kts 266°
2026-04-29 06:20 37.38371 124.55357 27719 ft 414 kts 266°
2026-04-29 06:20 37.38289 124.51727 28025 ft 415 kts 265°
2026-04-29 06:20 37.38174 124.48100 28317 ft 415 kts 263°
2026-04-29 06:20 37.37786 124.44500 28578 ft 416 kts 257°
2026-04-29 06:21 37.37030 124.40999 28835 ft 416 kts 250°
2026-04-29 06:21 37.35884 124.37660 29119 ft 417 kts 243°
2026-04-29 06:21 37.34447 124.34496 29558 ft 415 kts 241°
2026-04-29 06:21 37.32953 124.31442 30048 ft 411 kts 240°
2026-04-29 06:22 37.31422 124.28412 30488 ft 407 kts 239°
2026-04-29 06:22 37.29895 124.25421 30783 ft 406 kts 239°
2026-04-29 06:22 37.28370 124.22434 31026 ft 406 kts 239°
2026-04-29 06:22 37.26852 124.19449 31239 ft 406 kts 239°
2026-04-29 06:23 37.25339 124.16461 31512 ft 405 kts 239°
2026-04-29 06:23 37.23836 124.13487 31804 ft 403 kts 239°
2026-04-29 06:23 37.22325 124.10527 32070 ft 402 kts 239°
2026-04-29 06:23 37.20780 124.07602 32331 ft 401 kts 238°
2026-04-29 06:24 37.19221 124.04701 32577 ft 401 kts 238°
2026-04-29 06:24 37.17683 124.01851 32823 ft 400 kts 238°
2026-04-29 06:24 37.16128 123.98968 33068 ft 399 kts 238°
2026-04-29 06:24 37.14598 123.96077 33289 ft 398 kts 239°
2026-04-29 06:25 37.13097 123.93167 33523 ft 397 kts 239°
2026-04-29 06:25 37.11611 123.90260 33755 ft 396 kts 239°
2026-04-29 06:25 37.10132 123.87364 33952 ft 395 kts 239°
2026-04-29 06:25 37.08651 123.84473 34179 ft 394 kts 239°
2026-04-29 06:26 37.07165 123.81582 34299 ft 395 kts 239°
2026-04-29 06:26 37.05673 123.78688 34330 ft 398 kts 239°
2026-04-29 06:26 37.02652 123.72850 34329 ft 400 kts 239°
2026-04-29 06:27 36.99620 123.67012 34343 ft 399 kts 239°
2026-04-29 06:27 36.96601 123.61205 34333 ft 398 kts 239°
2026-04-29 06:28 36.93577 123.55397 34333 ft 398 kts 239°
2026-04-29 06:28 36.90555 123.49601 34335 ft 398 kts 239°
2026-04-29 06:29 36.87614 123.43749 34336 ft 397 kts 243°
2026-04-29 06:29 36.85619 123.37360 34343 ft 396 kts 255°
2026-04-29 06:30 36.85060 123.30118 34327 ft 403 kts 268°